Flag Weather past 2 weeks in Dushanbe, Tajikistan

Now
52 °F

Sprinkles. More clouds than sun.


Feels Like: 51 °F
Forecast: 37 / 50 °F
Wind: 3 mph from Southwest

Location: Dushanbe Airport

Current Time: Nov 24, 2014 at 1:24:19 PM

Latest Report: Nov 24, 2014 at 1:00 PM


Visibility: N/A

Pressure: 30.12 "Hg

Humidity: 50%

Dew point: 34 °F

Location of DushanbeLocation

Historic Weather in Dushanbe — Graph

°F

Dushanbe temperature yesterday

Maximum temperature yesterday: 63 °F (at 1:30 PM)
Minimum temperature yesterday: 36 °F (at 2:00 AM)
Average temperature yesterday: 49 °F

Past Weeks' High & Low Weather Summary

 TemperatureHumidityPressure
High68 °F (Nov 17, 2:00 PM)100% (Nov 22, 7:30 AM)30.57 "Hg (Nov 22, 7:30 AM)
Low30 °F (Nov 10, 3:00 AM)12% (Nov 16, 3:00 PM)29.92 "Hg (Nov 24, 2:30 AM)
Average46 °F65%30.24 "Hg
* Reported Nov 9 12:00 Noon — Nov 24 12:30 PM, Dushanbe, Weather by CustomWeather, © 2014

Note: Actual official high and low records may vary slightly from our data, if they occured in-between our weather recording intervals... More about our weather records

Advertising

Dushanbe weather history for previous 24 hours

 ConditionsComfort  
Time TempWeatherWind HumidityBarometerVisibility
12:30 PM
Nov 24
54 °FMore clouds than sun.10 mph44%30.12 "HgN/A
12:00 PM54 °FMore clouds than sun.15 mph44%30.12 "HgN/A
11:30 AM54 °FMore clouds than sun.10 mph47%30.12 "HgN/A
11:00 AM54 °FMore clouds than sun.8 mph51%30.09 "Hg4 mi
10:30 AM50 °FFog.3 mph67%30.07 "Hg3 mi
10:00 AM50 °FFog.1 mph67%30.07 "Hg3 mi
9:30 AM52 °FFog.1 mph67%30.07 "Hg3 mi
9:00 AM50 °FFog.1 mph67%30.04 "Hg3 mi
8:30 AM50 °FMore clouds than sun.No wind67%30.01 "Hg4 mi
8:00 AM50 °FMore clouds than sun.1 mph62%30.01 "Hg6 mi
7:30 AM50 °FMore clouds than sun.3 mph62%29.98 "HgN/A
7:00 AM50 °FMostly cloudy.3 mph54%29.98 "HgN/A
6:30 AM54 °FMostly cloudy.3 mph41%29.98 "HgN/A
6:00 AM50 °FMostly cloudy.3 mph54%29.98 "HgN/A
5:30 AM52 °FSprinkles. Mostly cloudy.6 mph62%29.98 "Hg5 mi
5:00 AM52 °FMostly cloudy.6 mph44%29.98 "HgN/A
4:30 AM52 °FMostly cloudy.3 mph38%29.95 "HgN/A
4:00 AM48 °FMostly cloudy.6 mph50%29.98 "HgN/A
3:30 AM52 °FMostly cloudy.3 mph38%29.95 "HgN/A
3:00 AM54 °FMostly cloudy.3 mph30%29.95 "HgN/A
2:30 AM54 °FMostly cloudy.3 mph30%29.92 "HgN/A
1:30 AM52 °FOvercast.3 mph41%29.95 "HgN/A
1:00 AM52 °FOvercast.3 mph35%29.95 "HgN/A
12:30 AM54 °FOvercast.3 mph30%29.95 "HgN/A
12:00 AM54 °FOvercast.6 mph35%29.95 "HgN/A
11:30 PM
Nov 23
54 °FOvercast.6 mph33%29.98 "HgN/A
11:00 PM54 °FOvercast.6 mph33%29.98 "Hg6 mi
10:30 PM50 °FOvercast.3 mph47%29.98 "Hg4 mi
10:00 PM52 °FOvercast.1 mph41%29.98 "Hg4 mi
9:30 PM50 °FMostly cloudy.1 mph50%29.98 "Hg4 mi
9:00 PM52 °FMostly cloudy.3 mph38%29.98 "Hg4 mi
8:30 PM52 °FMostly cloudy.3 mph41%29.98 "Hg4 mi
8:00 PM52 °FMostly cloudy.3 mph41%29.98 "Hg4 mi
7:30 PM55 °FMostly cloudy.3 mph28%29.98 "Hg4 mi
7:00 PM54 °FMostly cloudy.6 mph28%29.98 "Hg5 mi
6:30 PM54 °FMostly cloudy.6 mph33%29.98 "Hg5 mi
6:00 PM54 °FMostly cloudy.6 mph33%29.98 "Hg4 mi
5:30 PM54 °FMostly cloudy.8 mph28%29.98 "HgN/A
5:00 PM55 °FOvercast.8 mph26%29.98 "HgN/A
4:30 PM57 °FOvercast.8 mph25%29.98 "HgN/A
4:00 PM57 °FOvercast.10 mph29%29.98 "HgN/A
3:30 PM59 °FOvercast.6 mph27%29.98 "HgN/A
3:00 PM59 °FOvercast.10 mph27%29.98 "HgN/A
2:30 PM59 °FOvercast.8 mph29%30.01 "HgN/A
2:00 PM61 °FOvercast.8 mph25%30.01 "HgN/A
1:30 PM63 °FPartly sunny.10 mph20%30.01 "HgN/A
1:00 PM61 °FOvercast.10 mph23%30.04 "HgN/A
Weather by CustomWeather, © 2014

See weather overviewHow to use our weather pages